Location: Te Maire Creek
(41.1333°S, 175.9167°E)
Time: 01:47:23
(UTC+00:00)

Timation 2 Rocket - Pass Details

Date: 19 May 2024
Orbit: 906 x 1074 km, 70.0° (Epoch: 18 June)

Event Time Altitude Azimuth Distance (km) Brightness Sun altitude
Rises 18:34:58 0° 207° (SSW) 3,767 6.6 -9.0°
Reaches altitude 10° 18:37:32 10° 209° (SSW) 2,834 6.0 -8.6°
Maximum altitude 18:44:11 75° 292° (WNW) 1,092 4.2 -7.4°
Drops below altitude 10° 18:51:00 10° 16° (NNE) 2,893 7.0 -6.2°
Sets 18:53:38 0° 17° (NNE) 3,850 7.7 -5.7°
